YAMAL 601

Last updated on Nov. 29, 2020, 6:16 a.m. UTC

1 44307U 19031A   20333.51021642  .00000138  00000-0  00000-0 0  9996
2 44307   0.0221 302.8347 0001835 297.4017  60.2977  1.00268209  5609
UTC
Height (km)
Latitude
Longitude
Inclination
Orbital Period
UTC large
Height (km)
Speed (km/s)
/
Latitude / Longitude
Inclination (degrees)
Orbital Period (minutes)
Azimuth
Elevation
Range (km)
Doppler Factor
iOS Compass Heading
iOS Angle

Next 30 passes for location: Hong Kong

Rise time Rise Azimuth (degrees) Set time Set Azimuth (degrees) Duration Max altitude (degrees)

No matching passes for this satellites